Location: Aubervilles
(48.9167°N, 2.3833°E)
Time: 11:27:01
(UTC+00:00)

Gblst 52 Del rocket - Pass Details

Date: 03 February 2023
Orbit: 805 x 1364 km, 51.5° (Epoch: 29 March)

Event Time Altitude Azimuth Distance (km) Brightness Sun altitude
Rises 18:36:24 0° 251° (WSW) 3,419 8.9 -17.5°
Reaches altitude 10° 18:38:57 10° 252° (WSW) 2,440 7.8 -17.9°
Maximum altitude 18:44:34 85° 341° (NNW) 815 4.1 -18.9°
Enters shadow 18:47:00 35° 69° (ENE) 1,287 4.6 -19.3°
